Location: Newark
(44.1667°N, 8.2500°E)
Time: 23:45:24
(UTC+00:00)

Explorer 11/Cluster Stage 4 - Pass Details

Date: 23 December 2019
Orbit: 467 x 1259 km, 28.8° (Epoch: 28 January)

Event Time Altitude Azimuth Distance (km) Brightness Sun altitude
Exits shadow 04:45:57 - 218° (SW) 3,143 9.4 -23.0°
Reaches altitude 10° 04:46:22 10° 216° (SW) 3,046 9.3 -22.9°
Maximum altitude 04:52:08 23° 168° (SSE) 2,338 9.2 -21.9°
Drops below altitude 10° 04:58:12 10° 120° (ESE) 3,231 10.8 -20.9°
Sets 05:01:49 0° 108° (ESE) 4,190 11.9 -20.2°
